Location: Unspecified
(0.0000°N, 0.0000°E)
Time: 17:41:02
(UTC+02:00)

Delta 168 - Visible Passes

Search period start: 19 April 2015 00:00
Search period end: 29 April 2015 00:00
Orbit: 395 x 2093 km, 25.3° (Epoch: 18 April)

Date Brightness Start Highest point End Pass type
(mag) Time Alt. Az. Time Alt. Az. Time Alt. Az.
19 Apr 6.5 05:25:53 12° SSE 05:26:18 12° SSE 05:29:10 10° SE visible
19 Apr 6.0 07:17:41 10° SW 07:25:13 38° SSE 07:35:41 10° E visible
19 Apr 2.6 21:21:32 10° WNW 21:26:21 75° SSW 21:26:45 67° SSE visible
20 Apr 6.5 05:20:05 12° SSE 05:20:05 12° SSE 05:23:05 10° SE visible
20 Apr 5.8 07:11:12 10° SW 07:18:32 41° SSE 07:29:00 10° E visible
20 Apr 3.2 21:14:57 10° WNW 21:20:01 57° SSW 21:21:03 42° SSE visible
21 Apr 6.4 05:14:17 13° SSE 05:14:17 13° SSE 05:16:59 10° SE visible
21 Apr 5.6 07:04:43 10° SW 07:11:51 46° SSE 07:22:15 10° E visible
21 Apr 3.8 21:08:22 10° WNW 21:13:38 45° SSW 21:15:20 28° SSE visible
22 Apr 6.4 05:08:29 13° SE 05:08:29 13° SE 05:10:49 10° ESE visible
22 Apr 5.3 06:58:49 13° SW 07:05:09 51° SSE 07:15:26 10° ENE visible
22 Apr 4.3 21:01:49 10° W 21:07:12 37° SSW 21:09:35 20° SSE visible
23 Apr 6.4 05:02:42 13° SE 05:02:42 13° SE 05:04:38 10° ESE visible
23 Apr 5.0 06:53:01 17° SW 06:58:28 57° SSE 07:08:33 10° ENE visible
23 Apr 4.7 20:55:16 10° W 21:00:44 31° SSW 21:03:50 14° SSE visible
24 Apr 6.4 04:56:54 13° ESE 04:56:54 13° ESE 04:58:23 10° ESE visible
24 Apr 4.7 06:47:14 22° SW 06:51:49 65° SSE 07:01:39 10° ENE visible
24 Apr 5.1 20:48:45 10° W 20:54:14 27° SSW 20:58:03 10° SSE visible
25 Apr 6.5 04:51:06 12° ESE 04:51:06 12° ESE 04:52:05 10° ESE visible
25 Apr 4.4 06:41:25 27° SW 06:45:11 75° SSE 06:54:41 10° ENE visible
25 Apr 5.4 20:42:15 10° W 20:47:43 24° SSW 20:51:38 10° SSE visible
26 Apr 6.6 04:45:17 11° ESE 04:45:17 11° ESE 04:45:45 10° ESE visible
26 Apr 4.2 06:35:36 34° WSW 06:38:35 86° SSE 06:47:41 10° ENE visible
26 Apr 5.6 20:35:46 10° W 20:41:11 22° SSW 20:45:07 10° SSE visible
27 Apr 4.0 06:29:45 41° WSW 06:32:01 81° NNW 06:40:39 10° ENE visible
27 Apr 5.7 20:29:18 10° WSW 20:34:38 20° SSW 20:38:34 10° SSE visible
28 Apr 3.9 06:23:53 47° W 06:25:29 67° NNW 06:33:35 10° ENE visible
28 Apr 5.8 20:22:52 10° WSW 20:28:05 18° SSW 20:31:58 10° SSE visible
